Regional Weather Roundup
Issued by NWS Bismarck, ND

Home | Current Version | Previous Version | Text Only | Print | Product List | Glossary On
Versions: 1 2 3 4 5 6 7 8 9 10 11 12 13 14 15 16 17 18 19 20 21 22 23 24 25 26 27 28 29 30 31 32 33 34 35 36 37 38 39 40 41 42 43 44 45 46 47 48 49 50
000
ASUS43 KBIS 041810
RWRBIS

NWR BROADCAST TEXT
NATIONAL WEATHER SERVICE BISMARCK ND
100 PM CDT TUE AUG 04 2015

NOTE: "FAIR" INDICATES FEW OR NO CLOUDS BELOW 12,000 FEET WITH NO
SIGNIFICANT WEATHER AND/OR OBSTRUCTIONS TO VISIBILITY.


CITY           SKY/WX    TMP DP  RH WIND       PRES   REMARKS
WILLISTON      SUNNY     84  50  30 S17       29.93F
MINOT          SUNNY     79  49  34 E8        29.98F
MINOT AFB      SUNNY     80  51  35 SE9       29.98F
BISMARCK       SUNNY     81  55  40 SE9G16    29.98F
DICKINSON      SUNNY     80  57  45 SE15G22   29.96F
GARRISON         N/A     77  54  44 E13       29.98F
HETTINGER ARPT SUNNY     80  58  46 SE14G21   29.98F
JAMESTOWN      SUNNY     76  51  41 VRB3      30.00F
CROSBY         FAIR      81  50  34 SE16      29.97F
HARVEY         FAIR      77  50  38 S5        30.00F
HAZEN          FAIR      81  50  34 SE9       29.97F
LINTON         FAIR      82  59  44 S7        29.97F
OAKES            N/A     79  52  38 E6        29.99F
STANLEY        FAIR      77  50  38 SE15      29.99F
$$

CITY           SKY/WX    TMP DP  RH WIND       PRES   REMARKS
GRAND FORKS    MOSUNNY   73  53  49 N6        30.02F
GRAND FORKS AF SUNNY     73  54  51 VRB5      30.02F
DEVILS LAKE    SUNNY     73  52  46 S9        30.02S
FARGO          SUNNY     78  47  33 NE9       30.00F
CAVALIER       FAIR      68  52  56 CALM      30.04S
GRAFTON        FAIR      72  54  53 VRB5G13   30.03F
GWINNER        FAIR      79  55  44 N7        30.00F
LANGDON        FAIR      73  52  46 NE7       30.06S
ROLLA            N/A     70  54  56 SE7       30.05F
WALHALLA       FAIR      70  54  56 MISG      30.05R
$$

CITY           SKY/WX    TMP DP  RH WIND       PRES   REMARKS
ABERDEEN       MOSUNNY   79  56  45 E7        29.98F
MOBRIDGE       MOSUNNY   81  63  54 SE10      29.94F
BUFFALO          N/A     83  55  38 SE23G29   29.89F
RAPID CITY     PTSUNNY   76  64  66 S13       29.96F
GLASGOW        SUNNY     85  56  37 SE17      29.86S
SIDNEY         SUNNY    N/A N/A N/A SE14      29.90F
WOLF POINT     SUNNY     87  57  35 SE10G17   29.88F
GLENDIVE         N/A    N/A N/A N/A MISG        N/A
MILES CITY     MOSUNNY   88  57  34 SE13G23   29.86F
BAKER          SUNNY     85  54  34 SE20G30   29.94F
$$

CITY           SKY/WX    TMP DP  RH WIND       PRES   REMARKS
BILLINGS       CLOUDY    74  54  49 SW14      30.00R
GREAT FALLS    CLOUDY    80  41  24 SW12      29.94R
REGINA         CLOUDY    79  54  41 SE16G22   29.95S
ESTEVAN        PTSUNNY   81  52  36 SE15G25   29.98S
$$



USA.gov is the U.S. government's official web portal to all federal, state and local government web resources and services.